星链-31511 (STARLINK-31511 )

导读 | 豆包AI

STARLINK-31511是美国SpaceX公司星链(Starlink)卫星互联网项目中的一颗低轨通信卫星,于2024年4月10日发射入轨。作为星链星座组网的组成部分,它运行在近地轨道,旨在为全球用户,包括偏远地区提供高速低延迟宽带互联网服务,支持全球覆盖的卫星互联网络构建,助力缩小数字鸿沟。

基本信息
目录编号:
59462
目录名称:
STARLINK-31511
国际标识:
2024-068H
轨道中心:
EARTH
卫星名称:
星链-31511
卫星全名:
星链-31511 (STARLINK-31511 )
卫星状态:
在轨 (已飞行704 天)
发射日期:
2024-04-10 UTC
国别 :
美国 (US)
星等 :
--
轨道信息
数据来源 国际轨道数据
星历时间: 2026-03-15T09:40:15+0800
18小时前
查看轨道信息
半长轴: 6861.153km
偏心率: 0.0001435
轨道倾角: 43.005°
近地点辐角 270.643°
升交点赤经 4.297°
平近点角 89.425°
近地点: 482.031km
远地点: 484.001km
周期: 94.266分钟
每日圈数: 15.275912
详细信息
固有亮度:
5
最大亮度:
1.5
卫星平台:
Starlink v2.0 mini
覆盖范围:
全球
运营商:
太空探索技术公司
运营商所在国:
美国
制造商(研发单位):
太空探索技术公司
制造商所在国:
美国
使用方式:
暂无
卫星简介
星链(Starlink)计划是由太空探索技术公司(SpaceX)提出的一个巨型低轨卫星互联网星座项目,计划在2019年至2024年间在太空搭建由约1.2万颗卫星组成的“星链”网络,其中1584颗将部署在地球上空550千米处的近地轨道,并从2020年开始工作。该卫星仍在工作。
2D轨道图
3D轨道图
轨道高度分析图
轨道倾角分析图
轨道综合分析图
查看轨道综合分析图